[[{"header":{"parameterUnit":"m.s-1","parameterCategory":2,"la1":30.2991,"la2":30.254,"lo1":-89.0895,"lo2":-89.0444,"dy":0.0017,"dx":0.0017,"nx":28,"ny":28,"refTime":"2024-07-30T03:00:00:Z","depth":"0","parameterNumber":2,"parameterNumberName":"U-component_of_CURRENTS"},"data":[0,0,0,0,0,0,0,0,0,0,0,0,0,0,0,0,0,0,0,0,0,0,0,0,0,0,0,0,0,0,0,0,0,0,0,0,0,0,0,0,0,0,0,0,0,0,0,0,0,0,0,0,0,0,0,0,0,0,0.2273,0.2273,0,0.2265,0.2265,0.2265,0.2243,0.2243,0.2243,0.2242,0.2207,0.2206,0.2205,0,0,0,0,0,0,0,0,0,0,0,0,0,0.2263,0.2263,0.2273,0.2273,0.2273,0.2265,0.2265,0.2265,0.2243,0.2243,0.2243,0.2242,0.2207,0.2206,0.2205,0,0,0,0,0,0,0,0,0,0,0,0,0,0.226,0.2263,0.2273,0.2264,0.2263,0.2265,0.2265,0.2265,0.2243,0.2243,0.2243,0.2242,0.2207,0.2206,0.2205,0.2206,0,0,0.2202,0.2202,0,0,0,0,0,0,0,0,0.226,0.226,0.2265,0.2264,0.2263,0.2257,0.2248,0.2244,0.2243,0.2248,0.2242,0.2242,0.2223,0.2221,0.2217,0.2204,0.2203,0.2202,0.2201,0.2201,0.22,0,0,0,0,0,0,0,0.2261,0.226,0.2268,0.2265,0.2264,0.2258,0.2256,0.2247,0.2235,0.2248,0.2247,0.225,0.2222,0.2218,0.2216,0.2202,0.2202,0.2201,0.22,0.22,0.2218,0.2219,0,0,0,0,0,0,0.2267,0.2261,0.2268,0.2268,0.2264,0.2258,0.2257,0.2257,0.2236,0.2233,0.225,0.2249,0.222,0.2217,0.2214,0.2242,0.2201,0.22,0.2199,0.2217,0.2218,0.2219,0,0,0,0,0,0,0.2267,0.2268,0.2268,0.2266,0.2266,0.2259,0.226,0.2258,0.2257,0.2239,0.2235,0.2252,0.222,0.2216,0.2216,0.2239,0.2199,0.2198,0.2215,0.2217,0.2219,0.2278,0,0,0,0,0,0,0.2267,0.2268,0.227,0.2266,0.2266,0.2277,0.226,0.2258,0.226,0.2259,0.2239,0.2235,0.2219,0.2218,0.2215,0.2237,0.2197,0.2214,0.2216,0.2218,0.2274,0.2281,0.2287,0,0,0,0,0,0.2266,0.2268,0.227,0.2271,0.227,0.2278,0.2277,0.2269,0.2261,0.2266,0.2255,0.2236,0.223,0.2218,0.2214,0.2236,0.2213,0.2216,0.2218,0.2272,0.228,0.2287,0,0,0,0,0,0,0.2257,0.2266,0.2268,0.2271,0.228,0.2275,0.2276,0.2275,0.2269,0.2266,0.2246,0.2242,0.2249,0.2236,0.2224,0.2249,0.222,0.2222,0.2262,0.227,0.2276,0.2273,0.2197,0,0,0,0,0,0.226,0.2266,0.2275,0.2278,0.2284,0.2283,0.2285,0.2284,0.228,0.2277,0.2265,0.2256,0.2257,0.2258,0.2249,0.2262,0.2278,0.2276,0.2282,0.2288,0.2284,0.2332,0.2342,0.2228,0.2228,0.2228,0,0,0.2253,0.2262,0.2263,0.2277,0.228,0.2293,0.2282,0.229,0.2301,0.2274,0.2278,0.2273,0.2264,0.2278,0.2281,0.2271,0.2336,0.2291,0.2296,0.2289,0.2336,0.2347,0.2357,0.2229,0.2229,0.2229,0,0,0.2249,0.2256,0.2264,0.2279,0.2296,0.23,0.2306,0.231,0.2313,0.2321,0.231,0.2321,0.2311,0.232,0.2321,0.2359,0.2364,0.2358,0.2392,0.244,0.245,0.2458,0.2526,0.254,0.2367,0.2367,0.2367,0,0.2239,0.2255,0.2267,0.2285,0.2298,0.2306,0.232,0.2328,0.2332,0.2341,0.2328,0.2341,0.2333,0.2366,0.2379,0.2373,0.2406,0.2364,0.2449,0.2458,0.2466,0.2532,0.2547,0.237,0.237,0.2369,0.2369,0,0.2249,0.2264,0.227,0.2298,0.2315,0.2328,0.2349,0.2364,0.2368,0.2375,0.2401,0.2399,0.241,0.2418,0.2406,0.2463,0.2472,0.2449,0.2431,0.2481,0.2548,0.2563,0.2375,0.2373,0.2372,0.2372,0,0,0.2213,0.2265,0.2267,0.2286,0.2324,0.2336,0.2369,0.2398,0.2421,0.2431,0.2465,0.2474,0.2477,0.2479,0.2481,0.252,0.2615,0.251,0.2511,0.258,0.2744,0.2859,0.2886,0.2609,0.2611,0.2613,0.278,0,0.2214,0.2248,0.2277,0.2308,0.2327,0.236,0.2391,0.2423,0.2445,0.2481,0.2501,0.2525,0.2502,0.2518,0.2555,0.2586,0.265,0.2573,0.2681,0.2685,0.2783,0.2905,0.288,0.3035,0.2794,0.2796,0.2798,0,0.2215,0.224,0.227,0.2323,0.2334,0.2355,0.2411,0.2439,0.2499,0.2523,0.256,0.2573,0.2631,0.2604,0.2705,0.2658,0.271,0.2739,0.2746,0.2838,0.2827,0.2939,0.307,0.2944,0.282,0.2818,0.2817,0,0.219,0.2235,0.2258,0.2276,0.2336,0.2357,0.2386,0.2445,0.248,0.2551,0.2593,0.2647,0.2695,0.2746,0.2822,0.2765,0.2955,0.2881,0.3043,0.3052,0.3043,0.3049,0.3064,0.2978,0.2977,0.2977,0.2976,0,0.2183,0.2202,0.2245,0.226,0.229,0.2339,0.2379,0.2425,0.2499,0.2561,0.2608,0.2687,0.2733,0.2843,0.2877,0.3044,0.3011,0.3088,0.3117,0.3069,0.3074,0.2972,0.2884,0.2983,0.2982,0.298,0.2979,0,0.2161,0.2188,0.2217,0.2268,0.228,0.2301,0.2368,0.2404,0.2483,0.2575,0.2606,0.2738,0.29,0.2988,0.3113,0.315,0.3201,0.3334,0.3298,0.3321,0.3324,0.3242,0.3227,0.3127,0.3519,0.3523,0.3526,0,0.2159,0.2169,0.221,0.2221,0.2241,0.2275,0.2305,0.2382,0.2435,0.2617,0.2671,0.2867,0.3013,0.3276,0.3405,0.356,0.3378,0.3612,0.3494,0.3371,0.3297,0.3124,0.3023,0.3507,0.351,0.3512,0.3514,0,0.2151,0.216,0.2179,0.2194,0.2216,0.2246,0.2299,0.2336,0.2457,0.2565,0.2747,0.2882,0.3209,0.3376,0.3624,0.3709,0.345,0.3671,0.353,0.3307,0.3128,0.303,0.3355,0.3536,0.3534,0.3532,0.3531,0.353,0.2139,0.2138,0.215,0.2161,0.2183,0.2202,0.2205,0.2293,0.2383,0.2527,0.2727,0.2916,0.3224,0.3584,0.3669,0.3785,0.3655,0.3679,0.36,0.3443,0.331,0.3725,0.3945,0.3945,0.3946,0.3946,0.3946,0,0.2104,0.2102,0.2116,0.211,0.2109,0.2142,0.2191,0.2195,0.2275,0.2469,0.2634,0.2961,0.3203,0.3443,0.3723,0.3677,0.3496,0.3578,0.3259,0.3166,0.3544,0.3506,0.3657,0.3657,0.3657,0.3657,0.3657,0.3657,0.2083,0.2066,0.2065,0.2032,0.2031,0.2002,0.2013,0.2052,0.2156,0.2336,0.2516,0.2698,0.3079,0.3417,0.352,0.3484,0.3154,0.313,0.2996,0.3196,0.3194,0.3192,0.3134,0.3204,0.3203,0.2524,0.2519,0.2515]},{"header":{"parameterUnit":"m.s-1","parameterCategory":2,"la1":30.2991,"la2":30.254,"lo1":-89.0895,"lo2":-89.0444,"dy":0.0017,"dx":0.0017,"nx":28,"ny":28,"refTime":"2024-07-30T03:00:00:Z","depth":"0","parameterNumber":3,"parameterNumberName":"V-component_of_CURRENTS"},"data":[0,0,0,0,0,0,0,0,0,0,0,0,0,0,0,0,0,0,0,0,0,0,0,0,0,0,0,0,0,0,0,0,0,0,0,0,0,0,0,0,0,0,0,0,0,0,0,0,0,0,0,0,0,0,0,0,0,0,-0.1515,-0.1516,0,-0.1609,-0.161,-0.1612,-0.1686,-0.1687,-0.1687,-0.1688,-0.1765,-0.1766,-0.1768,0,0,0,0,0,0,0,0,0,0,0,0,0,-0.1435,-0.1436,-0.1515,-0.1516,-0.1517,-0.1609,-0.1611,-0.1612,-0.1686,-0.1687,-0.1688,-0.1688,-0.1764,-0.1766,-0.1768,0,0,0,0,0,0,0,0,0,0,0,0,0,-0.1495,-0.1436,-0.1515,-0.1563,-0.1569,-0.1609,-0.1611,-0.1612,-0.1686,-0.1687,-0.1688,-0.1689,-0.1764,-0.1766,-0.1768,-0.1766,0,0,-0.1775,-0.1776,0,0,0,0,0,0,0,0,-0.1492,-0.1498,-0.1555,-0.156,-0.1566,-0.1635,-0.1611,-0.1662,-0.1686,-0.1644,-0.1688,-0.1689,-0.1718,-0.1724,-0.1743,-0.177,-0.1773,-0.1776,-0.1777,-0.1778,-0.1779,0,0,0,0,0,0,0,-0.1487,-0.1495,-0.1554,-0.1556,-0.1563,-0.1593,-0.1602,-0.1621,-0.1676,-0.1647,-0.1653,-0.166,-0.1721,-0.1741,-0.1745,-0.1774,-0.1776,-0.1778,-0.1779,-0.178,-0.1809,-0.1809,0,0,0,0,0,0,-0.1469,-0.1491,-0.1551,-0.1557,-0.1528,-0.1593,-0.1604,-0.1614,-0.1677,-0.1687,-0.1659,-0.1663,-0.1736,-0.1743,-0.1748,-0.174,-0.1778,-0.178,-0.1781,-0.181,-0.1809,-0.1808,0,0,0,0,0,0,-0.1467,-0.1474,-0.1547,-0.1524,-0.1536,-0.1593,-0.1604,-0.1615,-0.1632,-0.1685,-0.1695,-0.1664,-0.1737,-0.1745,-0.1762,-0.1744,-0.1781,-0.1783,-0.1811,-0.181,-0.1809,-0.1728,0,0,0,0,0,0,-0.1464,-0.1472,-0.1469,-0.1523,-0.1536,-0.1557,-0.1603,-0.1616,-0.1634,-0.164,-0.1692,-0.1701,-0.1739,-0.1758,-0.1764,-0.1747,-0.1785,-0.1811,-0.181,-0.1809,-0.1732,-0.1725,-0.1719,0,0,0,0,0,-0.1461,-0.1444,-0.1468,-0.1475,-0.1531,-0.1556,-0.1565,-0.1611,-0.1633,-0.1631,-0.1672,-0.1699,-0.1755,-0.1759,-0.1766,-0.175,-0.1812,-0.1811,-0.1809,-0.1735,-0.1726,-0.1719,0,0,0,0,0,0,-0.1406,-0.1451,-0.1479,-0.1477,-0.151,-0.1567,-0.1564,-0.16,-0.1632,-0.1634,-0.1691,-0.1701,-0.1711,-0.1739,-0.1742,-0.1756,-0.1788,-0.1788,-0.1729,-0.1721,-0.1715,-0.1672,-0.1787,0,0,0,0,0,-0.1392,-0.1391,-0.1444,-0.1441,-0.1451,-0.1507,-0.1522,-0.1554,-0.1591,-0.1606,-0.1645,-0.1682,-0.1711,-0.1722,-0.1752,-0.1753,-0.1758,-0.1748,-0.1742,-0.1736,-0.1707,-0.172,-0.1711,-0.1804,-0.1804,-0.1804,0,0,-0.1366,-0.1393,-0.1392,-0.1428,-0.1456,-0.1458,-0.1518,-0.1528,-0.1532,-0.1606,-0.1614,-0.1659,-0.1707,-0.1717,-0.1723,-0.1737,-0.1708,-0.1734,-0.1729,-0.1702,-0.1717,-0.1708,-0.17,-0.1803,-0.1803,-0.1803,0,0,-0.1307,-0.134,-0.1317,-0.134,-0.1374,-0.141,-0.1408,-0.1459,-0.1483,-0.15,-0.1557,-0.1586,-0.1628,-0.1661,-0.1683,-0.1654,-0.1676,-0.1668,-0.1596,-0.161,-0.1602,-0.1595,-0.1567,-0.1559,-0.1662,-0.1662,-0.1662,0,-0.1272,-0.1262,-0.1312,-0.13,-0.1307,-0.1381,-0.1359,-0.1393,-0.1445,-0.1452,-0.1486,-0.1548,-0.1598,-0.1607,-0.1605,-0.1637,-0.1634,-0.1623,-0.1599,-0.1593,-0.1587,-0.1561,-0.1552,-0.1658,-0.1658,-0.1659,-0.1659,0,-0.12,-0.1195,-0.118,-0.1193,-0.1209,-0.12,-0.1255,-0.127,-0.1311,-0.135,-0.1369,-0.144,-0.1474,-0.1502,-0.1546,-0.1531,-0.1536,-0.1591,-0.1614,-0.1572,-0.1548,-0.154,-0.1652,-0.1653,-0.1655,-0.1656,0,0,-0.1099,-0.1124,-0.1116,-0.1107,-0.1152,-0.1151,-0.1157,-0.1179,-0.1168,-0.123,-0.1214,-0.1289,-0.1332,-0.1359,-0.1423,-0.1436,-0.1404,-0.1485,-0.1487,-0.1445,-0.1393,-0.1339,-0.1325,-0.1457,-0.1456,-0.1455,-0.1384,0,-0.1022,-0.0976,-0.1015,-0.0971,-0.0951,-0.102,-0.1015,-0.1048,-0.1089,-0.1093,-0.1171,-0.1183,-0.1278,-0.1286,-0.1319,-0.1387,-0.1382,-0.1415,-0.1448,-0.1448,-0.1397,-0.1315,-0.1225,-0.115,-0.1377,-0.1375,-0.1374,0,-0.0924,-0.0913,-0.0855,-0.0859,-0.0855,-0.0841,-0.0843,-0.085,-0.0893,-0.0922,-0.0961,-0.1027,-0.1061,-0.1148,-0.1216,-0.123,-0.1289,-0.134,-0.134,-0.1307,-0.1379,-0.1234,-0.1128,-0.1333,-0.1363,-0.1364,-0.1365,0,-0.0809,-0.0794,-0.0743,-0.0744,-0.0761,-0.0741,-0.075,-0.0784,-0.0766,-0.0801,-0.078,-0.0866,-0.0871,-0.0976,-0.1098,-0.1152,-0.1151,-0.1251,-0.1245,-0.1242,-0.1177,-0.1169,-0.126,-0.1269,-0.1269,-0.1269,-0.1269,0,-0.0702,-0.0655,-0.068,-0.0646,-0.0577,-0.0631,-0.0562,-0.0591,-0.0596,-0.053,-0.0671,-0.0619,-0.0826,-0.087,-0.1015,-0.1075,-0.1088,-0.1186,-0.121,-0.1144,-0.1135,-0.1323,-0.1435,-0.1266,-0.1267,-0.1267,-0.1268,0,-0.0564,-0.0587,-0.052,-0.0522,-0.0514,-0.0457,-0.0432,-0.038,-0.0411,-0.0323,-0.0318,-0.0405,-0.0453,-0.0641,-0.0781,-0.0923,-0.1089,-0.1044,-0.0927,-0.0938,-0.1146,-0.1254,-0.1303,-0.1365,-0.1022,-0.102,-0.1018,0,-0.0486,-0.0439,-0.0407,-0.0361,-0.035,-0.0291,-0.0241,-0.0271,-0.0208,-0.0165,-0.0092,-0.0126,-0.0109,-0.0298,-0.0541,-0.0735,-0.0962,-0.0809,-0.0911,-0.1097,-0.1238,-0.1339,-0.1398,-0.0788,-0.0785,-0.0782,-0.078,0,-0.0332,-0.0322,-0.0276,-0.019,-0.0124,-0.0048,0.0022,0.0101,0.0107,0.0197,0.0325,0.0345,0.0165,0.0025,-0.0277,-0.0458,-0.0909,-0.0758,-0.0991,-0.1066,-0.1138,-0.1229,-0.0887,-0.0755,-0.0757,-0.0759,-0.0761,-0.0762,-0.0207,-0.0148,-0.0097,-0.0008,0.0075,0.0203,0.0305,0.0401,0.0553,0.072,0.0695,0.0803,0.0499,0.0112,-0.0165,-0.065,-0.0715,-0.0827,-0.0938,-0.1021,-0.1094,-0.0666,-0.0552,-0.0554,-0.0555,-0.0556,-0.0556,0,-0.0059,-0.0015,0.0076,0.0196,0.033,0.0322,0.0488,0.0613,0.0848,0.1013,0.1152,0.1122,0.0748,0.0265,-0.0364,-0.0759,-0.0956,-0.1019,-0.1178,-0.123,-0.0871,-0.0879,-0.078,-0.078,-0.078,-0.078,-0.0779,-0.0779,0.002,0.013,0.0161,0.0398,0.0491,0.0683,0.0793,0.0986,0.1136,0.1417,0.1537,0.1564,0.1201,0.0018,-0.0866,-0.1094,-0.1419,-0.1436,-0.165,-0.1467,-0.146,-0.1455,-0.1492,-0.1524,-0.1525,-0.1949,-0.1953,-0.1956]}],[{"header":{"parameterUnit":"m.s-1","parameterCategory":2,"la1":30.2991,"la2":30.254,"lo1":-89.0895,"lo2":-89.0444,"dy":0.0017,"dx":0.0017,"nx":28,"ny":28,"refTime":"2024-07-30T03:00:00:Z","depth":"2","parameterNumber":2,"parameterNumberName":"U-component_of_CURRENTS"},"data":[0,0,0,0,0,0,0,0,0,0,0,0,0,0,0,0,0,0,0,0,0,0,0,0,0,0,0,0,0,0,0,0,0,0,0,0,0,0,0,0,0,0,0,0,0,0,0,0,0,0,0,0,0,0,0,0,0,0,0.1919,0.192,0,0.1977,0.1977,0.1978,0.1962,0.1961,0.196,0.196,0.1938,0.1939,0.1939,0,0,0,0,0,0,0,0,0,0,0,0,0,0.1804,0.1806,0.1919,0.192,0.1921,0.1977,0.1977,0.1978,0.1962,0.1961,0.196,0.1959,0.1938,0.1938,0.1939,0,0,0,0,0,0,0,0,0,0,0,0,0,0.1854,0.1807,0.1918,0.1922,0.1923,0.1977,0.1977,0.1978,0.1962,0.1961,0.196,0.1959,0.1938,0.1938,0.1939,0.1967,0,0,0.194,0.194,0,0,0,0,0,0,0,0,0.1851,0.1858,0.1921,0.1922,0.1923,0.1964,0.1929,0.1971,0.1963,0.1944,0.196,0.1958,0.1943,0.1943,0.1953,0.1966,0.1965,0.194,0.194,0.194,0.194,0,0,0,0,0,0,0,0.1848,0.1856,0.1938,0.1922,0.1924,0.1925,0.193,0.1937,0.1946,0.1946,0.1945,0.1958,0.1942,0.1953,0.1952,0.1965,0.194,0.194,0.194,0.1941,0.2005,0.2006,0,0,0,0,0,0,0.1849,0.1853,0.1936,0.194,0.1887,0.1928,0.1934,0.1949,0.1947,0.1948,0.1959,0.1957,0.1953,0.1952,0.1951,0.1979,0.194,0.1941,0.1941,0.2003,0.2005,0.2007,0,0,0,0,0,0,0.1846,0.1856,0.1934,0.19,0.191,0.1932,0.1949,0.1951,0.1957,0.1959,0.1956,0.1962,0.1951,0.1951,0.197,0.1978,0.1941,0.1941,0.2002,0.2004,0.2006,0.2039,0,0,0,0,0,0,0.1843,0.1855,0.1862,0.19,0.1912,0.1961,0.1951,0.1954,0.1968,0.1966,0.1961,0.1958,0.195,0.197,0.197,0.1978,0.1941,0.2,0.2003,0.2005,0.2036,0.2042,0.2047,0,0,0,0,0,0.1838,0.1855,0.1862,0.1872,0.1923,0.1962,0.1968,0.1976,0.197,0.1975,0.1984,0.1958,0.1987,0.1972,0.1972,0.198,0.1998,0.2002,0.2005,0.2033,0.2041,0.2047,0,0,0,0,0,0,0.181,0.1857,0.1864,0.1895,0.1924,0.196,0.1971,0.1979,0.1992,0.1986,0.1982,0.1981,0.2001,0.1994,0.1976,0.2009,0.1987,0.1991,0.2008,0.2015,0.2021,0.2013,0.1942,0,0,0,0,0,0.1809,0.1831,0.1875,0.1898,0.1914,0.1943,0.1958,0.1966,0.1988,0.1991,0.1991,0.1998,0.2019,0.2018,0.203,0.2048,0.2073,0.2054,0.206,0.2064,0.2061,0.2119,0.213,0.2018,0.2018,0.2018,0,0,0.1802,0.1834,0.1844,0.1893,0.1916,0.1945,0.1948,0.1974,0.1993,0.1988,0.2005,0.2018,0.2031,0.2055,0.2062,0.2045,0.2117,0.2069,0.2072,0.2066,0.2124,0.2135,0.2144,0.202,0.202,0.2019,0,0,0.1806,0.1831,0.1851,0.1879,0.1921,0.1942,0.195,0.1986,0.1994,0.2024,0.2031,0.2056,0.207,0.2089,0.2101,0.2147,0.215,0.2143,0.2156,0.2214,0.2223,0.2232,0.2307,0.2322,0.2139,0.2139,0.2139,0,0.1791,0.1828,0.1861,0.1893,0.1913,0.1942,0.1965,0.199,0.2023,0.204,0.2028,0.2086,0.209,0.2139,0.2152,0.2158,0.2195,0.2127,0.2221,0.2229,0.2237,0.2312,0.2328,0.2141,0.2141,0.2141,0.214,0,0.1816,0.1841,0.1858,0.1905,0.1932,0.1955,0.1998,0.2022,0.2034,0.2058,0.2103,0.2125,0.2158,0.2166,0.217,0.223,0.2243,0.2226,0.22,0.225,0.2327,0.2343,0.2144,0.2143,0.2143,0.2142,0,0,0.1783,0.1856,0.186,0.1881,0.1936,0.1962,0.2004,0.2051,0.2084,0.2109,0.2153,0.219,0.2201,0.2216,0.223,0.2269,0.2368,0.2266,0.2268,0.2335,0.2515,0.2571,0.2594,0.2366,0.2368,0.237,0.2556,0,0.1783,0.1834,0.1873,0.1911,0.1937,0.1982,0.2023,0.207,0.2106,0.2157,0.2192,0.2239,0.2222,0.2247,0.2284,0.2353,0.2407,0.232,0.246,0.2464,0.2503,0.2613,0.2265,0.2405,0.2571,0.2574,0.2576,0,0.1788,0.1822,0.186,0.1919,0.1935,0.1966,0.2034,0.2075,0.2158,0.219,0.224,0.2274,0.2352,0.2322,0.246,0.2406,0.2461,0.2504,0.2512,0.2558,0.255,0.2377,0.2428,0.2602,0.26,0.2598,0.2596,0,0.175,0.1808,0.1835,0.1856,0.1933,0.196,0.2,0.2081,0.2134,0.2219,0.2273,0.2348,0.2419,0.2482,0.2583,0.2527,0.2743,0.2679,0.2784,0.2789,0.2518,0.2496,0.2774,0.2774,0.2774,0.2773,0.2773,0,0.1737,0.1759,0.182,0.1839,0.1881,0.1937,0.1996,0.2055,0.215,0.2235,0.2287,0.2385,0.2461,0.259,0.2635,0.2797,0.2799,0.2821,0.2851,0.2526,0.2504,0.2675,0.2661,0.278,0.2779,0.2777,0.2776,0,0.1709,0.1744,0.1783,0.1849,0.1871,0.1904,0.2003,0.2049,0.2145,0.2264,0.2302,0.2456,0.2641,0.2738,0.289,0.2901,0.3019,0.3066,0.2705,0.269,0.3006,0.2991,0.3194,0.3197,0.3201,0.3203,0.3205,0,0.1708,0.1721,0.1784,0.1803,0.1836,0.1891,0.1935,0.2038,0.2107,0.2322,0.2389,0.2603,0.2739,0.3002,0.3018,0.3133,0.3189,0.294,0.2768,0.3046,0.3054,0.3034,0.3016,0.2419,0.2415,0.2412,0.2409,0,0.1698,0.1716,0.1742,0.1781,0.182,0.187,0.1948,0.2008,0.2155,0.2271,0.2464,0.2587,0.281,0.2786,0.296,0.2972,0.2886,0.288,0.3257,0.2396,0.2339,0.234,0.2342,0.2377,0.238,0.2382,0.2384,0.2385,0.1684,0.1691,0.1715,0.175,0.1788,0.1831,0.186,0.1959,0.2071,0.2196,0.238,0.2462,0.2524,0.2611,0.262,0.2633,0.282,0.2683,0.2682,0.2688,0.2594,0.2549,0.2609,0.2613,0.2617,0.262,0.2623,0,0.166,0.1661,0.1682,0.1712,0.1726,0.1772,0.1853,0.185,0.1945,0.2067,0.2164,0.2022,0.2043,0.2176,0.2099,0.2174,0.2023,0.2151,0.187,0.1905,0.1935,0.1791,0.1599,0.1597,0.1594,0.1592,0,0,0.1642,0.1635,0.1638,0.1636,0.1658,0.1666,0.1694,0.1678,0.1734,0.174,0.1756,0.1847,0.2033,0.173,0.1734,0.1663,0.1762,0.1607,0.2415,0.2111,0.2137,0.2226,0.2046,0,0,0,0,0]},{"header":{"parameterUnit":"m.s-1","parameterCategory":2,"la1":30.2991,"la2":30.254,"lo1":-89.0895,"lo2":-89.0444,"dy":0.0017,"dx":0.0017,"nx":28,"ny":28,"refTime":"2024-07-30T03:00:00:Z","depth":"2","parameterNumber":3,"parameterNumberName":"V-component_of_CURRENTS"},"data":[0,0,0,0,0,0,0,0,0,0,0,0,0,0,0,0,0,0,0,0,0,0,0,0,0,0,0,0,0,0,0,0,0,0,0,0,0,0,0,0,0,0,0,0,0,0,0,0,0,0,0,0,0,0,0,0,0,0,0.0466,0.0464,0,0.034,0.0338,0.0337,0.0212,0.021,0.0209,0.0207,0.0069,0.0067,0.0065,0,0,0,0,0,0,0,0,0,0,0,0,0,0.0541,0.0541,0.0466,0.0464,0.0462,0.034,0.0338,0.0337,0.0212,0.021,0.0208,0.0206,0.0069,0.0067,0.0064,0,0,0,0,0,0,0,0,0,0,0,0,0,0.0473,0.054,0.0466,0.0384,0.0375,0.034,0.0338,0.0336,0.0213,0.021,0.0207,0.0205,0.007,0.0067,0.0064,0.01,0,0,0.0055,0.0054,0,0,0,0,0,0,0,0,0.0477,0.047,0.0398,0.039,0.038,0.0287,0.0313,0.0256,0.0214,0.0277,0.0207,0.0204,0.0141,0.0132,0.0118,0.0094,0.0088,0.0055,0.0053,0.0052,0.0051,0,0,0,0,0,0,0,0.0482,0.0475,0.0418,0.0396,0.0385,0.0333,0.0322,0.0302,0.0227,0.0271,0.0261,0.0245,0.0136,0.0121,0.0113,0.0086,0.0055,0.0052,0.005,0.0049,-0.0036,-0.0036,0,0,0,0,0,0,0.05,0.048,0.0422,0.0414,0.042,0.0334,0.0321,0.0321,0.0227,0.021,0.0247,0.024,0.0127,0.0117,0.0108,0.0055,0.0052,0.0049,0.0047,-0.0035,-0.0036,-0.0036,0,0,0,0,0,0,0.0502,0.0497,0.0427,0.0441,0.0428,0.0336,0.0337,0.032,0.0266,0.0209,0.0191,0.0205,0.0125,0.0112,0.0072,0.0052,0.0048,0.0045,-0.0035,-0.0035,-0.0036,0.0008,0,0,0,0,0,0,0.0506,0.0499,0.0492,0.0443,0.0428,0.0395,0.0339,0.032,0.0261,0.0249,0.0169,0.0155,0.0122,0.0077,0.0069,0.0048,0.0043,-0.0034,-0.0035,-0.0036,0.0007,0.0009,0.001,0,0,0,0,0,0.0509,0.0511,0.0493,0.0484,0.0427,0.0396,0.0383,0.0309,0.0262,0.0248,0.0193,0.0155,0.0064,0.0075,0.0066,0.0043,-0.0034,-0.0035,-0.0036,0.0006,0.0009,0.001,0,0,0,0,0,0,0.0527,0.0498,0.0476,0.0465,0.043,0.0373,0.0343,0.03,0.0246,0.022,0.0164,0.0149,0.0104,0.0073,0.0085,0.0014,0.0003,0.0001,0.0038,0.004,0.0042,0.0035,0.004,0,0,0,0,0,0.0536,0.0531,0.0495,0.0481,0.0466,0.0403,0.0373,0.0328,0.0279,0.0248,0.0191,0.0134,0.0101,0.0069,0.0036,0.0008,-0.0031,-0.0018,-0.0016,-0.0015,-0.0028,-0.0088,-0.0093,-0.004,-0.004,-0.004,0,0,0.0532,0.0518,0.0508,0.0484,0.0446,0.043,0.0377,0.0331,0.0305,0.0247,0.0183,0.0143,0.0097,0.0061,0.0036,0.0026,-0.0048,-0.0016,-0.0014,-0.0029,-0.0089,-0.0095,-0.0099,-0.0041,-0.004,-0.004,0,0,0.0531,0.0517,0.0512,0.0494,0.0448,0.0425,0.041,0.0347,0.0302,0.0259,0.0207,0.016,0.0095,0.0062,0.0039,0.0032,-0.003,0.0005,-0.0001,-0.0058,-0.0063,-0.0068,-0.0111,-0.012,-0.0002,-0.0002,-0.0002,0,0.0519,0.0517,0.0502,0.0495,0.0471,0.0425,0.0407,0.0378,0.0303,0.027,0.0238,0.0134,0.0099,0.0058,0.0045,0.0036,-0.0012,0.0001,-0.0056,-0.0061,-0.0067,-0.0111,-0.0121,-0.0,-0.0001,-0.0001,-0.0001,0,0.0522,0.051,0.0504,0.049,0.0473,0.0447,0.0417,0.0383,0.0326,0.0284,0.0214,0.0165,0.0093,0.0079,0.0057,-0.0004,-0.0028,-0.0037,-0.0057,-0.007,-0.0115,-0.0126,0.0003,0.0002,0.0001,0.0001,0,0,0.0499,0.0505,0.0493,0.0483,0.0462,0.0444,0.0426,0.0387,0.0354,0.0283,0.0229,0.0168,0.0112,0.0082,0.0042,-0.0008,-0.0077,-0.0052,-0.0056,-0.0088,-0.0213,-0.0169,-0.0178,-0.0109,-0.0111,-0.0113,-0.0223,0,0.0486,0.0485,0.049,0.0466,0.0456,0.0434,0.0423,0.0386,0.0342,0.0289,0.0226,0.0162,0.0123,0.0075,0.002,-0.0043,-0.011,-0.0047,-0.0203,-0.0207,-0.0161,-0.0191,-0.0185,-0.0279,-0.0235,-0.0237,-0.0238,0,0.047,0.0473,0.0459,0.045,0.0441,0.0424,0.0387,0.0371,0.0323,0.0283,0.0213,0.0159,0.0082,0.0046,-0.0092,-0.0059,-0.0151,-0.0202,-0.0207,-0.0194,-0.0186,-0.0264,-0.0303,-0.0259,-0.0257,-0.0256,-0.0254,0,0.0447,0.0439,0.0427,0.0421,0.0418,0.0391,0.0376,0.0345,0.0345,0.0262,0.025,0.014,0.0094,-0.0034,-0.0131,-0.0141,-0.027,-0.0291,-0.034,-0.0338,-0.0377,-0.0373,-0.0422,-0.0421,-0.0421,-0.0421,-0.0421,0,0.0432,0.0408,0.0405,0.0395,0.0378,0.0364,0.0343,0.032,0.0306,0.0334,0.0226,0.0236,0.0064,-0.0011,-0.0133,-0.0251,-0.028,-0.0354,-0.037,-0.0358,-0.0352,-0.037,-0.0363,-0.0425,-0.0424,-0.0423,-0.0423,0,0.0404,0.0403,0.0389,0.0375,0.0368,0.0345,0.0356,0.0368,0.0331,0.0368,0.0344,0.0288,0.0195,0.0048,-0.013,-0.0229,-0.0359,-0.0404,-0.0364,-0.0372,-0.04,-0.0389,-0.0498,-0.0497,-0.0497,-0.0497,-0.0496,0,0.0388,0.0381,0.0381,0.039,0.0375,0.0359,0.0383,0.0371,0.0417,0.0438,0.0481,0.039,0.0395,0.0159,-0.0077,-0.0299,-0.0325,-0.0431,-0.0448,-0.0406,-0.0411,-0.0401,-0.0391,-0.049,-0.049,-0.049,-0.0489,0,0.0371,0.0369,0.0384,0.041,0.0421,0.0465,0.0493,0.0551,0.0585,0.0633,0.0723,0.072,0.0484,0.0268,-0.0055,-0.0196,-0.0394,-0.0431,-0.0428,-0.0444,-0.0401,-0.0404,-0.0395,-0.0487,-0.0487,-0.0487,-0.0488,-0.0488,0.0362,0.0382,0.0418,0.0445,0.0486,0.0584,0.0653,0.0736,0.0847,0.0933,0.0912,0.0892,0.0597,0.0192,-0.0066,-0.0358,-0.036,-0.0469,-0.047,-0.0472,-0.0423,-0.0379,-0.0453,-0.0453,-0.0453,-0.0453,-0.0453,0,0.0378,0.0416,0.0456,0.0521,0.0608,0.0613,0.0757,0.0852,0.1029,0.1055,0.1099,0.0846,0.0575,0.0259,-0.0188,-0.0433,-0.0468,-0.0486,-0.0502,-0.0502,-0.0503,-0.0457,-0.0496,-0.0496,-0.0497,-0.0497,0,0,0.039,0.0453,0.0492,0.0627,0.0684,0.0832,0.0942,0.1066,0.1128,0.119,0.1142,0.1,0.0641,0.0311,-0.0039,-0.0271,-0.0318,-0.03,-0.0244,-0.0223,-0.0221,-0.0476,-0.0403,0,0,0,0,0]}],[{"header":{"parameterUnit":"m.s-1","parameterCategory":2,"la1":30.2991,"la2":30.254,"lo1":-89.0895,"lo2":-89.0444,"dy":0.0017,"dx":0.0017,"nx":28,"ny":28,"refTime":"2024-07-30T03:00:00:Z","depth":"4","parameterNumber":2,"parameterNumberName":"U-component_of_CURRENTS"},"data":[0,0,0,0,0,0,0,0,0,0,0,0,0,0,0,0,0,0,0,0,0,0,0,0,0,0,0,0,0,0,0,0,0,0,0,0,0,0,0,0,0,0,0,0,0,0,0,0,0,0,0,0,0,0,0,0,0,0,0.0694,0.0695,0,0.0777,0.0778,0.0779,0.0874,0.0875,0.0877,0.0878,0.0999,0.1001,0.1002,0,0,0,0,0,0,0,0,0,0,0,0,0,0.0604,0.0605,0.0694,0.0695,0.0696,0.0777,0.0778,0.0779,0.0874,0.0875,0.0877,0.0879,0.0998,0.1,0.1003,0,0,0,0,0,0,0,0,0,0,0,0,0,0.0659,0.0605,0.0693,0.0754,0.076,0.0777,0.0778,0.078,0.0873,0.0875,0.0878,0.088,0.0998,0.1,0.1003,0.0973,0,0,0.1011,0.1012,0,0,0,0,0,0,0,0,0.0656,0.0662,0.0744,0.075,0.0757,0.0819,0.0791,0.0847,0.0873,0.0829,0.0878,0.0881,0.0941,0.0949,0.0957,0.0979,0.0984,0.1011,0.1013,0.1014,0.1015,0,0,0,0,0,0,0,0.0652,0.0659,0.0725,0.0745,0.0753,0.0773,0.0783,0.0802,0.087,0.0833,0.084,0.0851,0.0945,0.0954,0.096,0.0986,0.1011,0.1014,0.1015,0.1016,0.1186,0.1188,0,0,0,0,0,0,0.0643,0.0655,0.0723,0.0728,0.0713,0.0773,0.0785,0.0795,0.087,0.0883,0.0849,0.0855,0.0948,0.0957,0.0965,0.1112,0.1014,0.1017,0.1018,0.1183,0.1186,0.1189,0,0,0,0,0,0,0.064,0.0648,0.0719,0.0695,0.0706,0.0772,0.0784,0.0796,0.0838,0.0882,0.0897,0.0883,0.095,0.0961,0.1067,0.1111,0.1018,0.102,0.1179,0.1184,0.1188,0.1291,0,0,0,0,0,0,0.0637,0.0646,0.0663,0.0694,0.0707,0.0755,0.0782,0.0796,0.084,0.085,0.0915,0.0927,0.0953,0.1064,0.107,0.1113,0.1022,0.1176,0.1181,0.1186,0.1284,0.1299,0.1311,0,0,0,0,0,0.0634,0.0658,0.0664,0.0673,0.0724,0.0755,0.0764,0.0818,0.084,0.0863,0.095,0.0927,0.1101,0.1069,0.1076,0.112,0.1173,0.118,0.1186,0.1278,0.1296,0.1311,0,0,0,0,0,0,0.0638,0.067,0.0678,0.0712,0.0738,0.0773,0.0813,0.0826,0.0904,0.094,0.0972,0.0992,0.1097,0.1094,0.1057,0.1186,0.1128,0.1136,0.1196,0.1212,0.1226,0.1214,0.1024,0,0,0,0,0,0.0638,0.0654,0.0688,0.0709,0.0739,0.0772,0.0796,0.0827,0.0891,0.0927,0.0988,0.1055,0.1118,0.1158,0.121,0.1275,0.1249,0.1306,0.1319,0.133,0.1328,0.1336,0.1349,0.1211,0.1211,0.1211,0,0,0.0637,0.066,0.0667,0.0709,0.0746,0.0781,0.0795,0.0849,0.0904,0.0927,0.1056,0.1106,0.1148,0.125,0.1291,0.126,0.1362,0.1339,0.1348,0.1339,0.1344,0.1357,0.1369,0.1215,0.1215,0.1214,0,0,0.0644,0.0679,0.0701,0.0734,0.0792,0.081,0.0828,0.0896,0.0971,0.1086,0.112,0.1195,0.1311,0.1337,0.1365,0.1468,0.1433,0.1497,0.1555,0.1565,0.1575,0.1584,0.1582,0.159,0.1502,0.1502,0.1502,0,0.065,0.0683,0.0712,0.0755,0.0797,0.0824,0.0872,0.0934,0.1034,0.1113,0.1158,0.1318,0.1345,0.1423,0.1487,0.1493,0.1505,0.1491,0.158,0.1588,0.1595,0.1591,0.1598,0.1508,0.1507,0.1506,0.1506,0,0.0672,0.0716,0.0746,0.0798,0.0839,0.0892,0.0972,0.1061,0.1158,0.1217,0.1372,0.1431,0.152,0.1538,0.1563,0.1626,0.1622,0.1595,0.1531,0.1615,0.1606,0.1611,0.1516,0.1514,0.1512,0.1511,0,0,0.0652,0.0743,0.0759,0.0809,0.0883,0.0923,0.1041,0.1153,0.1252,0.1372,0.1495,0.1604,0.1635,0.1665,0.1675,0.1688,0.1754,0.169,0.1688,0.1675,0.1797,0.1633,0.1623,0.1767,0.1768,0.1769,0.1774,0,0.0674,0.075,0.0798,0.0885,0.0938,0.103,0.1128,0.1236,0.1365,0.1494,0.1565,0.1679,0.1681,0.1745,0.1761,0.1766,0.1775,0.1756,0.1729,0.1727,0.1559,0.1624,0.1774,0.1778,0.1779,0.178,0.178,0,0.0693,0.0741,0.0835,0.0959,0.1001,0.1085,0.127,0.1357,0.1519,0.1629,0.1734,0.1784,0.1846,0.1827,0.186,0.1869,0.1851,0.1829,0.1828,0.1635,0.1572,0.1675,0.1789,0.1789,0.1788,0.1787,0.1787,0,0.0662,0.0781,0.0863,0.0905,0.1036,0.1173,0.1272,0.1437,0.153,0.1717,0.1791,0.1875,0.1936,0.1935,0.1902,0.1922,0.1896,0.19,0.1718,0.1706,0.1804,0.1794,0.1895,0.1895,0.1895,0.1895,0.1895,0,0.0666,0.0727,0.0893,0.0944,0.1094,0.1202,0.138,0.1513,0.1654,0.1708,0.1858,0.1857,0.1977,0.1966,0.1929,0.1825,0.1914,0.1729,0.1696,0.1852,0.1847,0.1808,0.1798,0.1895,0.1895,0.1895,0.1895,0,0.0613,0.0697,0.0809,0.1008,0.1091,0.1218,0.143,0.1514,0.1682,0.1756,0.1809,0.1898,0.1867,0.1904,0.1881,0.1842,0.1755,0.1678,0.1834,0.1808,0.1567,0.1564,0.1532,0.1527,0.1522,0.1518,0.1514,0,0.0588,0.0646,0.0858,0.094,0.1068,0.1253,0.1346,0.1529,0.1574,0.1689,0.1669,0.1726,0.1745,0.1592,0.1635,0.1585,0.1544,0.1571,0.1592,0.1559,0.1531,0.1534,0.1537,0.1506,0.1505,0.1504,0.1503,0,0.0562,0.0658,0.0744,0.0892,0.1045,0.1159,0.1318,0.1303,0.1431,0.1597,0.1505,0.1502,0.1451,0.1428,0.1424,0.1356,0.1613,0.152,0.1532,0.1552,0.1528,0.1505,0.1513,0.1486,0.1488,0.149,0.1491,0,0.0554,0.0603,0.0718,0.0832,0.0982,0.1029,0.1113,0.1138,0.1189,0.1312,0.1227,0.1258,0.1352,0.1293,0.1223,0.1224,0.1228,0.1268,0.1292,0.1312,0.124,0.1177,0.0997,0,0,0,0,0,0.055,0.0553,0.0643,0.0727,0.0844,0.0942,0.1053,0.1098,0.1179,0.1082,0.1171,0.1087,0.106,0.1044,0.0997,0.1116,0.1226,0.1064,0.1283,0.1392,0.1411,0.1348,0,0,0,0,0,0,0.0542,0.0594,0.0593,0.0605,0.0639,0.0743,0.0813,0.0863,0.0807,0.091,0.0858,0.1048,0.0983,0.1051,0.0972,0.0988,0.1116,0.1121,0.1119,0.138,0.1398,0.1414,0.1356,0,0,0,0,0]},{"header":{"parameterUnit":"m.s-1","parameterCategory":2,"la1":30.2991,"la2":30.254,"lo1":-89.0895,"lo2":-89.0444,"dy":0.0017,"dx":0.0017,"nx":28,"ny":28,"refTime":"2024-07-30T03:00:00:Z","depth":"4","parameterNumber":3,"parameterNumberName":"V-component_of_CURRENTS"},"data":[0,0,0,0,0,0,0,0,0,0,0,0,0,0,0,0,0,0,0,0,0,0,0,0,0,0,0,0,0,0,0,0,0,0,0,0,0,0,0,0,0,0,0,0,0,0,0,0,0,0,0,0,0,0,0,0,0,0,0.0161,0.016,0,0.0093,0.0092,0.0091,0.0082,0.0083,0.0084,0.0085,0.001,0.0007,0.0004,0,0,0,0,0,0,0,0,0,0,0,0,0,0.0213,0.0212,0.0161,0.016,0.016,0.0093,0.0092,0.009,0.0082,0.0083,0.0084,0.0085,0.0011,0.0007,0.0004,0,0,0,0,0,0,0,0,0,0,0,0,0,0.0169,0.0212,0.0161,0.015,0.0149,0.0093,0.0092,0.009,0.0081,0.0083,0.0084,0.0086,0.0012,0.0008,0.0004,-0.0053,0,0,-0.001,-0.0012,0,0,0,0,0,0,0,0,0.0172,0.0167,0.0152,0.0151,0.0149,0.01,0.0083,0.0043,0.0081,0.0103,0.0085,0.0086,0.0041,0.0034,0.0013,-0.0056,-0.0059,-0.001,-0.0013,-0.0015,-0.0016,0,0,0,0,0,0,0,0.0175,0.0169,0.013,0.0152,0.015,0.0125,0.012,0.0075,0.0062,0.0101,0.0101,0.0099,0.004,0.0017,0.0011,-0.006,-0.001,-0.0014,-0.0017,-0.0018,-0.0163,-0.0164,0,0,0,0,0,0,0.0192,0.0172,0.0133,0.0129,0.0168,0.0123,0.0118,0.0112,0.0062,0.0057,0.0098,0.0099,0.0024,0.0016,0.0009,-0.0009,-0.0015,-0.0019,-0.0021,-0.0162,-0.0163,-0.0165,0,0,0,0,0,0,0.0193,0.0189,0.0135,0.0152,0.0144,0.0122,0.0114,0.011,0.0097,0.006,0.0055,0.0092,0.0025,0.0015,-0.0027,-0.0013,-0.0021,-0.0025,-0.016,-0.0162,-0.0164,-0.0077,0,0,0,0,0,0,0.0195,0.019,0.0192,0.0153,0.0144,0.0111,0.0113,0.0107,0.0094,0.0095,0.0053,0.0047,0.0025,-0.002,-0.0031,-0.0019,-0.0028,-0.0159,-0.0161,-0.0164,-0.0078,-0.0076,-0.0073,0,0,0,0,0,0.0197,0.0202,0.0192,0.0188,0.0147,0.0111,0.0104,0.009,0.0093,0.0084,0.0055,0.0049,-0.0042,-0.0025,-0.0037,-0.0026,-0.0158,-0.0161,-0.0163,-0.0079,-0.0076,-0.0073,0,0,0,0,0,0,0.0229,0.02,0.0189,0.0186,0.0154,0.0112,0.0113,0.0091,0.0058,0.0067,0.003,0.002,-0.0012,-0.0046,-0.0026,-0.0081,-0.0101,-0.0106,-0.0033,-0.0031,-0.0028,0.0003,-0.0032,0,0,0,0,0,0.0235,0.0224,0.0192,0.0183,0.0181,0.0143,0.0129,0.0113,0.008,0.0068,0.004,0.0002,-0.004,-0.0053,-0.0098,-0.0129,-0.016,-0.0135,-0.0132,-0.0129,-0.0117,-0.0169,-0.0169,-0.0174,-0.0174,-0.0174,0,0,0.0239,0.0225,0.0217,0.0188,0.0171,0.0149,0.0138,0.0122,0.0104,0.0063,0.0042,0.0006,-0.0051,-0.008,-0.0097,-0.0099,-0.0145,-0.0133,-0.0129,-0.0119,-0.0172,-0.0171,-0.017,-0.0176,-0.0176,-0.0175,0,0,0.0246,0.024,0.0237,0.0215,0.0193,0.0162,0.016,0.0124,0.0121,0.0092,0.0052,0.0019,-0.0029,-0.0072,-0.0099,-0.0121,-0.0137,-0.0128,-0.0076,-0.0126,-0.0125,-0.0124,-0.0152,-0.0154,-0.0116,-0.0116,-0.0116,0,0.0262,0.025,0.0228,0.0221,0.0213,0.0171,0.0165,0.0138,0.0089,0.0096,0.0103,0.0022,-0.0026,-0.0076,-0.0071,-0.0111,-0.0127,-0.0071,-0.0118,-0.0118,-0.0119,-0.0148,-0.0151,-0.0112,-0.0113,-0.0113,-0.0113,0,0.0258,0.0254,0.0258,0.023,0.0208,0.0201,0.0167,0.0158,0.0158,0.0138,0.0118,0.0055,0.0031,-0.0009,-0.0035,-0.0071,-0.0076,-0.0111,-0.0111,-0.0112,-0.0144,-0.0149,-0.0107,-0.0108,-0.0109,-0.011,0,0,0.0295,0.0265,0.0271,0.0277,0.0225,0.0219,0.0195,0.0179,0.0209,0.0161,0.0186,0.0104,0.0112,0.0079,0.0028,-0.0028,-0.0048,-0.0047,-0.0052,-0.0047,-0.0127,-0.013,-0.0137,-0.0073,-0.0074,-0.0075,-0.014,0,0.0312,0.0314,0.0286,0.0286,0.0289,0.0259,0.0253,0.023,0.0235,0.0247,0.0182,0.0197,0.0133,0.0167,0.009,-0.0018,-0.0059,-0.0025,-0.015,-0.0153,-0.0135,-0.0143,-0.0077,-0.0145,-0.0146,-0.0147,-0.0148,0,0.033,0.0328,0.0353,0.0352,0.036,0.0393,0.0422,0.0411,0.0395,0.0408,0.0394,0.0349,0.0276,0.0235,0.0062,0.01,0.0015,-0.0085,-0.009,-0.0125,-0.0168,-0.0152,-0.0158,-0.0157,-0.0156,-0.0156,-0.0155,0,0.0385,0.0383,0.0421,0.0418,0.0405,0.0487,0.0522,0.0521,0.0541,0.0572,0.0587,0.0483,0.0471,0.0319,0.012,0.0125,-0.0093,-0.0115,-0.0209,-0.021,-0.0222,-0.0222,-0.0221,-0.0221,-0.0221,-0.0221,-0.0221,0,0.0417,0.0434,0.0505,0.0534,0.0645,0.0625,0.0757,0.0776,0.0793,0.0781,0.0739,0.0657,0.0498,0.0332,0.0155,-0.005,-0.0055,-0.0195,-0.023,-0.0185,-0.0181,-0.0225,-0.0224,-0.0223,-0.0223,-0.0222,-0.0222,0,0.0445,0.0465,0.0527,0.0618,0.0691,0.0803,0.0942,0.0983,0.1023,0.1008,0.1026,0.0834,0.0616,0.0413,0.0143,0.0024,-0.0191,-0.026,-0.0184,-0.0215,-0.0272,-0.0267,-0.0331,-0.0332,-0.0333,-0.0333,-0.0334,0,0.0444,0.0493,0.0646,0.0739,0.0832,0.1,0.1082,0.1139,0.1131,0.1031,0.0966,0.0818,0.0654,0.0263,0.006,-0.0205,-0.0257,-0.0297,-0.0291,-0.0257,-0.0285,-0.0278,-0.0272,-0.0335,-0.0335,-0.0335,-0.0335,0,0.0458,0.0547,0.0601,0.0795,0.0959,0.107,0.1197,0.1166,0.1121,0.118,0.0904,0.0722,0.047,0.0186,0.0033,-0.0199,-0.0232,-0.0304,-0.0303,-0.0298,-0.0262,-0.0287,-0.0281,-0.0337,-0.0337,-0.0337,-0.0337,0,0.0488,0.0543,0.0653,0.0806,0.0991,0.1056,0.1117,0.1057,0.1045,0.0916,0.079,0.0549,0.0447,0.018,-0.0042,-0.0172,-0.0204,-0.0221,-0.0226,-0.0225,-0.0175,-0.0112,-0.0167,0,0,0,0,0,0.0509,0.0532,0.0651,0.0761,0.092,0.1033,0.1109,0.11,0.104,0.0856,0.0836,0.0576,0.0285,0.011,-0.0025,-0.0054,-0.0221,-0.0212,-0.0241,-0.0349,-0.0347,-0.0308,0,0,0,0,0,0,0.0518,0.0592,0.0603,0.0687,0.0759,0.0889,0.094,0.0892,0.0765,0.0714,0.0528,0.0572,0.0255,0.036,-0.0028,-0.0065,-0.0095,-0.0309,-0.0311,-0.0351,-0.0348,-0.0346,-0.0305,0,0,0,0,0]}]]